Regional Weather Roundup
Issued by NWS Mobile, AL

Current Version | Previous Version | Text Only | Print | Product List | Glossary On
Versions: 1 2 3 4 5 6 7 8 9 10 11 12 13 14 15 16 17 18 19 20 21 22 23 24 25 26 27 28 29 30 31 32 33 34 35 36 37 38 39 40 41 42 43 44 45 46 47 48 49 50
015
ASUS44 KMOB 082212
RWRMOB
REGIONAL WEATHER ROUNDUP
NATIONAL WEATHER SERVICE MOBILE AL
400 PM CST THU DEC 08 2016

NOTE: "FAIR" INDICATES FEW OR NO CLOUDS BELOW 12,000 FEET WITH NO
      SIGNIFICANT WEATHER AND/OR OBSTRUCTIONS TO VISIBILITY.

  * THESE STATIONS ARE PART OF THE UNIVERSITY OF SOUTH ALABAMA
    MESONET AND ARE NOT UNDER NWS OR FAA QUALITY CONTROL.

ALZ061>064-082300-
COASTAL ALABAMA

CITY           SKY/WX    TMP DP  RH WIND       PRES   REMARKS
MOBILE REG APT MOCLDY    51  31  46 N13       30.31R
BROOKLEY FIELD MOCLDY    53  32  44 N18G25    30.30S
USA CAMPUS*      N/A     50  32  50 NE7       30.30R
DOG RIVER*       N/A     52  34  50 N9        31.15


CITY           SKY/WX    TMP DP  RH WIND       PRES   REMARKS
GULF SHORES    MOCLDY    52  37  56 N10G22    30.27R

$$

ALZ051>060-082300-
INTERIOR SOUTHWEST AND SOUTH CENTRAL ALABAMA

CITY           SKY/WX    TMP DP  RH WIND       PRES   REMARKS
GREENVILLE     CLEAR     52  22  30 N14       30.31R
EVERGREEN      CLEAR     51  28  41 N10G18    30.32R
ATMORE*          N/A     50  32  50 N13       30.32R
ANDALUSIA/OPP  CLEAR     56  27  32 N15G23    30.28R
ANDALUSIA*       N/A     52  28  40 VRB15     30.28R
FLORALA APT    PTCLDY    53  31  42 N7        30.28R
FLORALA*         N/A     54  34  47 W2        31.07R

$$

FLZ001>006-082300-
WESTERN FLORIDA PANHANDLE

CITY           SKY/WX    TMP DP  RH WIND       PRES   REMARKS
PENSACOLA      MOCLDY    54  36  50 N12G20    30.27R
NAS PENSACOLA  CLOUDY    54  36  50 N17G25    30.26R
MILTON         MOCLDY    52  35  52 N12G22    30.28R
WHTNG S FIELD  MOCLDY    56  36  47 N13       30.28R


CITY           SKY/WX    TMP DP  RH WIND       PRES   REMARKS
JAY*             N/A     52  30  43 NW8       30.29S
DUKE FIELD     MOCLDY    55  36  48 N14       30.25R
CRESTVIEW      PTCLDY    55  35  47 N9G21     30.28R
VALPARAISO     MOCLDY    57  37  46 N14       30.25R
DESTIN         PTCLDY    59  39  47 N10G21    30.25R

$$

MSZ076-079-082300-
INTERIOR SOUTHEAST MISSISSIPPI

CITY           SKY/WX    TMP DP  RH WIND       PRES   REMARKS
LEAKESVILLE*   NOT AVBL
AGRICOLA*      NOT AVBL

$$

MARINE OBSERVATIONS

STATION/POSITION TIME  TEMP    WIND        PRES    WAVE
                       AIR SEA DIR/SP/G            HT/PER
                 (UTC) (F)     (DEG/KT/KT) (MB)    (FT/S)
PASCAGOULA       2148   53      10/ 14/ 18 1025.9R
PETIT BOIS ISLND 2148   52      10/ 21/ 26 1026.3R
GRAND BAY        2030   52      10/ 15     1026.0S
KATRINA CUT      2130   50      20/ 22     1024.7S
CEDAR POINT      2130   51      10/ 15     1024.7R
E DAUPHIN ISLAND 2100   53      10/ 25/ 29 1024.3F
MIDDLE BAY LIGHT 2130           10/ 25     1024.7R
USCG MOBILE BAY  2148   52 61  360/ 15/ 21 1026.4R
STATE DOCKS      2142   53 62              1025.8R
MEAHER PARK      2130   52     360/ 13     1025.7R
WEEKS BAY        2045   53                   N/A
12 S ORANGE BCH  2150   55 69   10/ 21/ 25 1024.5R   4/ 4
PENSACOLA BAY    2142   54 63  360/  9/ 16 1024.9R
64 S DAUPHIN ISL 2150   60 75   20/ 21/ 27 1024.5R   7/ 7
67 S FORT MORGAN 2130   60      30/ 19     1024.0R

$$

SELECTED LOCATIONS ACROSS THE REGION

CITY           SKY/WX    TMP DP  RH WIND       PRES   REMARKS
NEW ORLEANS    CLOUDY    52  42  69 N9        30.33R
GULFPORT       CLOUDY    53  37  54 N13       30.31R
PASCAGOULA AP  MOCLDY    52  33  48 N15G23    30.31R
PASCAGOULA*    NOT AVBL
HATTIESBURG    CLEAR     52  27  38 N12       30.38R
LAUREL         CLEAR     50  25  37 N12       30.40R
MERIDIAN       CLOUDY    46  24  42 N15       30.42R
JACKSON        CLOUDY    46  27  47 N8        30.42R
MONTGOMERY     CLEAR     51  22  31 N10       30.34R
TROY           CLEAR     51  24  34 N13       30.31R
ASHFORD*         N/A     52  28  40 VRB15     30.28R
DOTHAN         CLOUDY    54  36  50 N12       30.28R
PANAMA CITY    MOCLDY    59  39  47 N14       30.22R

$$





USA.gov is the U.S. government's official web portal to all federal, state and local government web resources and services.